• In Sweden
  • List of Countries
  • For 7 days
  • Water Temperature
  • Satellite Maps
  • Weather Map
  • Weather Widgets
  • user-avatar
    Login

    Hourly Weather Anantnag

    Today, 19 October, Friday

    Time Temperature Precipitation Wind Pressure Humidity
    00:00 +8°C° 0.1 mm 2 mps 626 mmHg 52%
    01:00 +8°C° 0.1 mm 2 mps 626 mmHg 52%
    02:00 +8°C° 0.1 mm 2 mps 626 mmHg 51%
    03:00 +8°C° 0.1 mm 2 mps 626 mmHg 50%
    04:00 +7°C° 0.1 mm 2 mps 626 mmHg 49%
    05:00 +8°C° 0 mm 2 mps 626 mmHg 47%
    06:00 +9°C° 0.1 mm 2 mps 627 mmHg 45%
    07:00 +10°C° 0.1 mm 2 mps 627 mmHg 43%
    08:00 +13°C° 0.1 mm 1 mps 628 mmHg 40%
    09:00 +14°C° 0 mm 1 mps 628 mmHg 38%
    10:00 +16°C° 0 mm 2 mps 629 mmHg 36%
    11:00 +17°C° 0 mm 2 mps 629 mmHg 34%
    12:00 +17°C° 0.1 mm 2 mps 629 mmHg 34%
    13:00 +18°C° 0.1 mm 2 mps 629 mmHg 34%
    14:00 +18°C° 0.1 mm 2 mps 628 mmHg 34%
    15:00 +16°C° 0.1 mm 1 mps 628 mmHg 39%
    16:00 +15°C° 0.1 mm 1 mps 627 mmHg 44%
    17:00 +13°C° 0.1 mm 1 mps 627 mmHg 48%
    18:00 +12°C° 0 mm 1 mps 627 mmHg 50%
    19:00 +10°C° 0 mm 2 mps 627 mmHg 51%
    20:00 +9°C° 0 mm 2 mps 627 mmHg 53%
    21:00 +9°C° 0 mm 2 mps 627 mmHg 53%
    22:00 +8°C° 0 mm 2 mps 628 mmHg 52%
    23:00 +8°C° 0 mm 2 mps 628 mmHg 52%

    Tomorrow, 20 October, Saturday

    Time Temperature Precipitation Wind Pressure Humidity
    00:00 +8°C° 0 mm 2 mps 628 mmHg 52%
    01:00 +7°C° 0 mm 2 mps 627 mmHg 51%
    02:00 +7°C° 0 mm 2 mps 627 mmHg 50%
    03:00 +7°C° 0 mm 2 mps 627 mmHg 50%
    04:00 +6°C° 0 mm 2 mps 627 mmHg 49%
    05:00 +6°C° 0 mm 2 mps 627 mmHg 48%
    06:00 +8°C° 0 mm 2 mps 628 mmHg 46%
    07:00 +9°C° 0 mm 2 mps 629 mmHg 43%
    08:00 +12°C° 0 mm 1 mps 630 mmHg 40%
    09:00 +14°C° 0 mm 1 mps 630 mmHg 37%
    10:00 +15°C° 0 mm 1 mps 630 mmHg 34%
    11:00 +18°C° 0 mm 1 mps 631 mmHg 31%
    12:00 +18°C° 0 mm 1 mps 630 mmHg 32%
    13:00 +18°C° 0 mm 2 mps 630 mmHg 32%
    14:00 +18°C° 0 mm 2 mps 630 mmHg 32%
    15:00 +16°C° 0 mm 1 mps 629 mmHg 37%
    16:00 +15°C° 0 mm 1 mps 628 mmHg 42%
    17:00 +13°C° 0 mm 1 mps 628 mmHg 47%
    18:00 +12°C° 0 mm 1 mps 628 mmHg 48%
    19:00 +10°C° 0 mm 2 mps 628 mmHg 49%
    20:00 +9°C° 0 mm 2 mps 628 mmHg 50%
    21:00 +8°C° 0 mm 2 mps 628 mmHg 50%
    22:00 +8°C° 0 mm 2 mps 628 mmHg 49%
    23:00 +8°C° 0 mm 2 mps 628 mmHg 48%

    Day after tomorrow, 21 October, Sunday

    Time Temperature Precipitation Wind Pressure Humidity
    00:00 +7°C° 0 mm 2 mps 628 mmHg 47%
    01:00 +7°C° 0 mm 2 mps 628 mmHg 47%
    02:00 +7°C° 0 mm 2 mps 628 mmHg 46%
    03:00 +7°C° 0 mm 2 mps 628 mmHg 46%
    04:00 +6°C° 0 mm 2 mps 628 mmHg 45%
    05:00 +6°C° 0 mm 2 mps 628 mmHg 45%
    06:00 +8°C° 0 mm 2 mps 628 mmHg 42%
    07:00 +9°C° 0 mm 2 mps 629 mmHg 39%
    08:00 +12°C° 0 mm 1 mps 630 mmHg 36%
    09:00 +14°C° 0 mm 1 mps 630 mmHg 34%
    10:00 +15°C° 0 mm 1 mps 631 mmHg 32%
    11:00 +17°C° 0 mm 2 mps 631 mmHg 29%
    12:00 +17°C° 0 mm 2 mps 631 mmHg 30%
    13:00 +18°C° 0 mm 2 mps 630 mmHg 30%
    14:00 +18°C° 0 mm 2 mps 630 mmHg 31%
    15:00 +16°C° 0.1 mm 1 mps 629 mmHg 36%
    16:00 +15°C° 0.1 mm 1 mps 628 mmHg 41%
    17:00 +13°C° 0.1 mm 1 mps 628 mmHg 46%
    18:00 +12°C° 0.1 mm 1 mps 628 mmHg 46%
    19:00 +10°C° 0.1 mm 2 mps 628 mmHg 46%
    20:00 +9°C° 0.1 mm 2 mps 628 mmHg 46%
    21:00 +8°C° 0 mm 2 mps 628 mmHg 45%
    22:00 +8°C° 0 mm 2 mps 628 mmHg 45%
    23:00 +8°C° 0 mm 2 mps 628 mmHg 44%

    22 October, Monday

    Time Temperature Precipitation Wind Pressure Humidity
    00:00 +8°C° 0 mm 2 mps 628 mmHg 43%
    01:00 +7°C° 0 mm 2 mps 628 mmHg 43%
    02:00 +7°C° 0 mm 2 mps 627 mmHg 42%
    03:00 +7°C° 0 mm 2 mps 627 mmHg 42%
    04:00 +7°C° 0 mm 2 mps 627 mmHg 42%
    05:00 +7°C° 0 mm 2 mps 627 mmHg 42%
    06:00 +8°C° 0 mm 2 mps 627 mmHg 40%
    07:00 +9°C° 0 mm 2 mps 628 mmHg 38%
    08:00 +12°C° 0 mm 2 mps 628 mmHg 36%
    09:00 +14°C° 0 mm 2 mps 629 mmHg 34%
    10:00 +15°C° 0 mm 1 mps 629 mmHg 32%
    11:00 +18°C° 0 mm 1 mps 629 mmHg 29%
    12:00 +18°C° 0 mm 1 mps 629 mmHg 30%
    13:00 +18°C° 0 mm 1 mps 628 mmHg 30%
    14:00 +18°C° 0 mm 2 mps 628 mmHg 31%
    15:00 +16°C° 0.1 mm 1 mps 627 mmHg 36%
    16:00 +14°C° 0.1 mm 1 mps 627 mmHg 41%
    17:00 +13°C° 0.1 mm 1 mps 626 mmHg 47%
    18:00 +12°C° 0 mm 1 mps 626 mmHg 48%
    19:00 +11°C° 0 mm 1 mps 626 mmHg 49%
    20:00 +8°C° 0 mm 2 mps 626 mmHg 51%
    21:00 +8°C° 0 mm 2 mps 626 mmHg 51%
    22:00 +8°C° 0 mm 2 mps 626 mmHg 51%
    23:00 +7°C° 0 mm 2 mps 626 mmHg 50%

    23 October, Tuesday

    Time Temperature Precipitation Wind Pressure Humidity
    00:00 +7°C° 0 mm 2 mps 626 mmHg 50%
    01:00 +7°C° 0 mm 2 mps 626 mmHg 51%
    02:00 +7°C° 0 mm 2 mps 626 mmHg 51%
    03:00 +6°C° 0 mm 2 mps 626 mmHg 51%
    04:00 +6°C° 0 mm 2 mps 626 mmHg 51%
    05:00 +6°C° 0 mm 2 mps 625 mmHg 52%
    06:00 +7°C° 0 mm 2 mps 626 mmHg 49%
    07:00 +9°C° 0 mm 2 mps 627 mmHg 46%
    08:00 +11°C° 0 mm 1 mps 627 mmHg 43%
    09:00 +13°C° 0 mm 1 mps 628 mmHg 40%
    10:00 +15°C° 0 mm 2 mps 628 mmHg 37%
    11:00 +16°C° 0 mm 2 mps 629 mmHg 34%
    12:00 +16°C° 0 mm 2 mps 628 mmHg 34%
    13:00 +17°C° 0 mm 2 mps 628 mmHg 34%
    14:00 +17°C° 0 mm 2 mps 627 mmHg 34%
    15:00 +15°C° 0 mm 2 mps 627 mmHg 39%
    16:00 +14°C° 0 mm 1 mps 626 mmHg 44%
    17:00 +12°C° 0 mm 1 mps 625 mmHg 49%
    18:00 +11°C° 0 mm 1 mps 626 mmHg 51%
    19:00 +10°C° 0 mm 1 mps 626 mmHg 52%
    20:00 +7°C° 0 mm 2 mps 626 mmHg 53%
    21:00 +7°C° 0 mm 2 mps 626 mmHg 52%
    22:00 +7°C° 0 mm 2 mps 626 mmHg 51%
    23:00 +7°C° 0 mm 2 mps 626 mmHg 50%

    24 October, Wednesday

    Time Temperature Precipitation Wind Pressure Humidity
    00:00 +6°C° 0 mm 2 mps 626 mmHg 48%
    01:00 +6°C° 0 mm 2 mps 625 mmHg 47%
    02:00 +6°C° 0 mm 2 mps 625 mmHg 46%
    03:00 +6°C° 0 mm 2 mps 625 mmHg 45%
    04:00 +6°C° 0 mm 2 mps 625 mmHg 43%
    05:00 +6°C° 0 mm 2 mps 625 mmHg 42%
    06:00 +8°C° 0 mm 2 mps 626 mmHg 39%
    07:00 +11°C° 0 mm 1 mps 626 mmHg 36%
    08:00 +12°C° 0 mm 1 mps 627 mmHg 32%
    09:00 +14°C° 0 mm 1 mps 627 mmHg 31%
    10:00 +15°C° 0 mm 1 mps 628 mmHg 29%
    11:00 +18°C° 0 mm 1 mps 628 mmHg 27%
    12:00 +18°C° 0 mm 1 mps 628 mmHg 28%
    13:00 +18°C° 0 mm 1 mps 627 mmHg 29%
    14:00 +18°C° 0 mm 1 mps 627 mmHg 29%
    15:00 +16°C° 0 mm 1 mps 626 mmHg 34%
    16:00 +14°C° 0 mm 1 mps 626 mmHg 39%
    17:00 +11°C° 0 mm 0 mps 626 mmHg 44%
    18:00 +12°C° 0 mm 1 mps 626 mmHg 45%
    19:00 +11°C° 0 mm 1 mps 626 mmHg 45%
    20:00 +11°C° 0 mm 1 mps 627 mmHg 45%
    21:00 +10°C° 0 mm 1 mps 627 mmHg 46%
    22:00 +10°C° 0 mm 1 mps 627 mmHg 47%
    23:00 +10°C° 0 mm 1 mps 627 mmHg 48%
    Show more